Flag for Italy Weather past 2 weeks in Bologna, Italy

Now
63 °F

Broken clouds.


Feels Like: 63 °F
Forecast: 51 / 70 °F
Wind: 3 mph from North

Location: Bologna / Borgo Panigale


UV Index: 5 (Moderate)

Visibility: N/A


Pressure: 29.68 "Hg

Humidity: 64%

Dew point: 50 °F

Location of BolognaLocation

Historic Weather in Bologna

°F

Bologna temperature yesterday

Maximum temperature yesterday: 66 °F (at 2:20 PM)
Minimum temperature yesterday: 46 °F (at 1:20 AM)
Average temperature yesterday: 57 °F

Past Weeks' High & Low Weather Summary

 TemperatureHumidityPressure
High77 °F (Apr 8, 3:20 PM)100% (Apr 12, 7:50 AM)30.18 "Hg (Apr 12, 7:50 AM)
Low41 °F (Apr 17, 5:20 AM)21% (Apr 16, 7:20 PM)29.59 "Hg (Apr 19, 3:20 AM)
Average58 °F65%29.95 "Hg
* Reported Apr 6 2:20 PM — Apr 21 2:50 PM, Bologna, Weather by CustomWeather, © 2014

Note: Actual official high and low records may vary slightly from our data, if they occured in-between our weather recording intervals... More about our weather records

Advertising

Historic Weather Conditions — Data for Previous 24 hours

 ConditionsComfort  
Time TempWeatherWind HumidityBarometerVisibility
2:50 PM
Apr 21
64 °FScattered clouds.6 mph60%29.68 "HgN/A
2:20 PM64 °FScattered clouds.7 mph64%29.68 "HgN/A
1:50 PM64 °FScattered clouds.8 mph64%29.68 "HgN/A
1:20 PM64 °FScattered clouds.6 mph56%29.68 "HgN/A
12:50 PM63 °FScattered clouds.5 mph64%29.68 "HgN/A
12:20 PM63 °FPartly sunny.3 mph64%29.68 "HgN/A
11:50 AM63 °FPartly sunny.2 mph73%29.68 "Hg5 mi
11:20 AM61 °FPartly sunny.2 mph72%29.68 "Hg5 mi
10:50 AM59 °FScattered clouds.2 mph82%29.68 "Hg4 mi
10:20 AM59 °FScattered clouds.3 mph82%29.68 "Hg4 mi
9:50 AM61 °FFog.1 mph77%29.68 "Hg3 mi
9:20 AM55 °FFog.3 mph88%29.68 "Hg2 mi
8:50 AM55 °FFog.2 mph88%29.68 "Hg2 mi
8:20 AM55 °FFog.2 mph88%29.68 "Hg3 mi
7:50 AM55 °FFog.5 mph88%29.68 "Hg3 mi
7:20 AM54 °FFog.5 mph94%29.68 "Hg2 mi
6:50 AM55 °FFog.1 mph94%29.68 "Hg2 mi
6:20 AM54 °FFog.2 mph100%29.68 "Hg2 mi
5:50 AM54 °FPassing clouds.2 mph100%29.68 "Hg4 mi
5:20 AM54 °FPassing clouds.2 mph94%29.68 "Hg4 mi
4:50 AM54 °FPassing clouds.5 mph94%29.68 "Hg4 mi
4:20 AM54 °FPassing clouds.3 mph94%29.68 "Hg4 mi
3:50 AM54 °FPassing clouds.3 mph94%29.68 "Hg5 mi
3:20 AM54 °FPassing clouds.5 mph94%29.71 "Hg5 mi
2:50 AM54 °FPassing clouds.5 mph94%29.71 "Hg5 mi
2:20 AM54 °FPassing clouds.6 mph94%29.71 "Hg5 mi
1:50 AM55 °FPassing clouds.6 mph88%29.71 "HgN/A
1:20 AM55 °FPassing clouds.7 mph88%29.71 "HgN/A
12:50 AM54 °FPassing clouds.5 mph88%29.71 "HgN/A
12:20 AM55 °FClear.7 mph88%29.71 "Hg10 mi
11:50 PM
Apr 20
55 °FClear.9 mph82%29.71 "Hg10 mi
10:50 PM57 °FPassing clouds.9 mph77%29.71 "HgN/A
10:20 PM57 °FPassing clouds.8 mph77%29.71 "HgN/A
9:50 PM59 °FPassing clouds.9 mph72%29.71 "HgN/A
9:20 PM59 °FPassing clouds.12 mph68%29.71 "HgN/A
8:50 PM59 °FScattered clouds.10 mph72%29.71 "HgN/A
8:20 PM61 °FScattered clouds.13 mph63%29.71 "HgN/A
7:50 PM61 °FPassing clouds.13 mph63%29.68 "HgN/A
7:20 PM63 °FPassing clouds.15 mph59%29.68 "HgN/A
6:50 PM64 °FPassing clouds.13 mph60%29.68 "HgN/A
6:20 PM66 °FPassing clouds.10 mph49%29.68 "HgN/A
5:50 PM66 °FPassing clouds.10 mph46%29.68 "HgN/A
5:20 PM66 °FPassing clouds.9 mph43%29.68 "HgN/A
4:50 PM66 °FPassing clouds.9 mph46%29.68 "HgN/A
4:20 PM66 °FPassing clouds.9 mph49%29.68 "HgN/A
3:50 PM66 °FPassing clouds.8 mph49%29.71 "HgN/A
3:20 PM66 °FPassing clouds.7 mph49%29.71 "HgN/A
Weather by CustomWeather, © 2014

See weather overview